Year,Month,Day,Hour,Minute,Value (Times are PST for temperature in C)
2017,08,22,00,00,18.60
2017,08,22,00,01,18.60
2017,08,22,00,02,18.50
2017,08,22,00,03,18.50
2017,08,22,00,04,18.50
2017,08,22,00,05,18.50
2017,08,22,00,06,18.50
2017,08,22,00,07,18.50
2017,08,22,00,08,18.50
2017,08,22,00,09,18.40
2017,08,22,00,10,18.40
2017,08,22,00,11,18.40
2017,08,22,00,12,18.40
2017,08,22,00,13,18.40
2017,08,22,00,14,18.40
2017,08,22,00,15,18.40
2017,08,22,00,16,18.40
2017,08,22,00,17,18.40
2017,08,22,00,18,18.40
2017,08,22,00,19,18.40
2017,08,22,00,20,18.40
2017,08,22,00,21,18.40
2017,08,22,00,22,18.40
2017,08,22,00,23,18.50
2017,08,22,00,24,18.50
2017,08,22,00,25,18.50
2017,08,22,00,26,18.50
2017,08,22,00,27,18.50
2017,08,22,00,28,18.50
2017,08,22,00,29,18.50
2017,08,22,00,30,18.50
2017,08,22,00,31,18.50
2017,08,22,00,32,18.50
2017,08,22,00,33,18.50
2017,08,22,00,34,18.50
2017,08,22,00,35,18.50
2017,08,22,00,36,18.50
2017,08,22,00,37,18.50
2017,08,22,00,38,18.50
2017,08,22,00,39,18.50
2017,08,22,00,40,18.50
2017,08,22,00,41,18.50
2017,08,22,00,42,18.40
2017,08,22,00,43,18.40
2017,08,22,00,44,18.40
2017,08,22,00,45,18.40
2017,08,22,00,46,18.40
2017,08,22,00,47,18.40
2017,08,22,00,48,18.40
2017,08,22,00,49,18.40
2017,08,22,00,50,18.40
2017,08,22,00,51,18.40
2017,08,22,00,52,18.30
2017,08,22,00,53,18.30
2017,08,22,00,54,18.30
2017,08,22,00,55,18.30
2017,08,22,00,56,18.30
2017,08,22,00,57,18.30
2017,08,22,00,58,18.20
2017,08,22,00,59,18.20
2017,08,22,01,00,18.20
2017,08,22,01,01,18.20
2017,08,22,01,02,18.20
2017,08,22,01,03,18.10
2017,08,22,01,04,18.10
2017,08,22,01,05,18.10
2017,08,22,01,06,18.10
2017,08,22,01,07,18.00
2017,08,22,01,08,18.00
2017,08,22,01,09,18.00
2017,08,22,01,10,18.00
2017,08,22,01,11,18.00
2017,08,22,01,12,18.00
2017,08,22,01,13,18.00
2017,08,22,01,14,18.10
2017,08,22,01,15,18.10
2017,08,22,01,16,18.20
2017,08,22,01,17,18.30
2017,08,22,01,18,18.40
2017,08,22,01,19,18.50
2017,08,22,01,20,18.60
2017,08,22,01,21,18.70
2017,08,22,01,22,18.80
2017,08,22,01,23,18.90
2017,08,22,01,24,18.90
2017,08,22,01,25,19.00
2017,08,22,01,26,19.00
2017,08,22,01,27,19.00
2017,08,22,01,28,19.00
2017,08,22,01,29,19.00
2017,08,22,01,30,19.00
2017,08,22,01,31,18.90
2017,08,22,01,32,18.90
2017,08,22,01,33,18.90
2017,08,22,01,34,18.90
2017,08,22,01,35,18.80
2017,08,22,01,36,18.80
2017,08,22,01,37,18.80
2017,08,22,01,38,18.90
2017,08,22,01,39,19.00
2017,08,22,01,40,19.10
2017,08,22,01,41,19.30
2017,08,22,01,42,19.50
2017,08,22,01,43,19.60
2017,08,22,01,44,19.80
2017,08,22,01,45,19.90
2017,08,22,01,46,20.00
2017,08,22,01,47,20.10
2017,08,22,01,48,20.20
2017,08,22,01,49,20.30
2017,08,22,01,50,20.40
2017,08,22,01,51,20.40
2017,08,22,01,52,20.50
2017,08,22,01,53,20.50
2017,08,22,01,54,20.60
2017,08,22,01,55,20.60
2017,08,22,01,56,20.70
2017,08,22,01,57,20.70
2017,08,22,01,58,20.70
2017,08,22,01,59,20.80
2017,08,22,02,00,20.80
2017,08,22,02,01,20.80
2017,08,22,02,02,20.80
2017,08,22,02,03,20.80
2017,08,22,02,04,20.80
2017,08,22,02,05,20.80
2017,08,22,02,06,20.90
2017,08,22,02,07,20.90
2017,08,22,02,08,20.90
2017,08,22,02,09,20.90
2017,08,22,02,10,20.90
2017,08,22,02,11,20.90
2017,08,22,02,12,20.90
2017,08,22,02,13,20.90
2017,08,22,02,14,20.90
2017,08,22,02,15,20.90
2017,08,22,02,16,20.90
2017,08,22,02,17,20.90
2017,08,22,02,18,20.90
2017,08,22,02,19,21.00
2017,08,22,02,20,21.00
2017,08,22,02,21,21.00
2017,08,22,02,22,21.10
2017,08,22,02,23,21.10
2017,08,22,02,24,21.10
2017,08,22,02,25,21.10
2017,08,22,02,26,21.00
2017,08,22,02,27,21.00
2017,08,22,02,28,21.00
2017,08,22,02,29,20.90
2017,08,22,02,30,20.90
2017,08,22,02,31,20.90
2017,08,22,02,32,20.90
2017,08,22,02,33,20.90
2017,08,22,02,34,20.90
2017,08,22,02,35,20.80
2017,08,22,02,36,20.80
2017,08,22,02,37,20.80
2017,08,22,02,38,20.70
2017,08,22,02,39,20.70
2017,08,22,02,40,20.70
2017,08,22,02,41,20.70
2017,08,22,02,42,20.70
2017,08,22,02,43,20.60
2017,08,22,02,44,20.60
2017,08,22,02,45,20.60
2017,08,22,02,46,20.60
2017,08,22,02,47,20.60
2017,08,22,02,48,20.60
2017,08,22,02,49,20.60
2017,08,22,02,50,20.60
2017,08,22,02,51,20.70
2017,08,22,02,52,20.70
2017,08,22,02,53,20.60
2017,08,22,02,54,20.60
2017,08,22,02,55,20.60
2017,08,22,02,56,20.50
2017,08,22,02,57,20.40
2017,08,22,02,58,20.40
2017,08,22,02,59,20.30
2017,08,22,03,00,20.20
2017,08,22,03,01,20.10
2017,08,22,03,02,20.00
2017,08,22,03,03,19.90
2017,08,22,03,04,19.80
2017,08,22,03,05,19.70
2017,08,22,03,06,19.70
2017,08,22,03,07,19.60
2017,08,22,03,08,19.50
2017,08,22,03,09,19.40
2017,08,22,03,10,19.40
2017,08,22,03,11,19.30
2017,08,22,03,12,19.20
2017,08,22,03,13,19.20
2017,08,22,03,14,19.20
2017,08,22,03,15,19.10
2017,08,22,03,16,19.10
2017,08,22,03,17,19.10
2017,08,22,03,18,19.10
2017,08,22,03,19,19.10
2017,08,22,03,20,19.10
2017,08,22,03,21,19.10
2017,08,22,03,22,19.10
2017,08,22,03,23,19.10
2017,08,22,03,24,19.10
2017,08,22,03,25,19.10
2017,08,22,03,26,19.10
2017,08,22,03,27,19.10
2017,08,22,03,28,19.10
2017,08,22,03,29,19.10
2017,08,22,03,30,19.00
2017,08,22,03,31,19.00
2017,08,22,03,32,19.00
2017,08,22,03,33,18.90
2017,08,22,03,34,18.90
2017,08,22,03,35,18.90
2017,08,22,03,36,18.90
2017,08,22,03,37,18.90
2017,08,22,03,38,18.90
2017,08,22,03,39,18.80
2017,08,22,03,40,18.80
2017,08,22,03,41,18.80
2017,08,22,03,42,18.80
2017,08,22,03,43,18.70
2017,08,22,03,44,18.70
2017,08,22,03,45,18.60
2017,08,22,03,46,18.60
2017,08,22,03,47,18.50
2017,08,22,03,48,18.50
2017,08,22,03,49,18.40
2017,08,22,03,50,18.40
2017,08,22,03,51,18.30
2017,08,22,03,52,18.30
2017,08,22,03,53,18.30
2017,08,22,03,54,18.20
2017,08,22,03,55,18.20
2017,08,22,03,56,18.20
2017,08,22,03,57,18.20
2017,08,22,03,58,18.20
2017,08,22,03,59,18.20
2017,08,22,04,00,18.20
2017,08,22,04,01,18.20
2017,08,22,04,02,18.20
2017,08,22,04,03,18.20
2017,08,22,04,04,18.20
2017,08,22,04,05,18.20
2017,08,22,04,06,18.20
2017,08,22,04,07,18.20
2017,08,22,04,08,18.20
2017,08,22,04,09,18.20
2017,08,22,04,10,18.20
2017,08,22,04,11,18.20
2017,08,22,04,12,18.20
2017,08,22,04,13,18.20
2017,08,22,04,14,18.20
2017,08,22,04,15,18.20
2017,08,22,04,16,18.20
2017,08,22,04,17,18.20
2017,08,22,04,18,18.20
2017,08,22,04,19,18.30
2017,08,22,04,20,18.30
2017,08,22,04,21,18.30
2017,08,22,04,22,18.30
2017,08,22,04,23,18.30
2017,08,22,04,24,18.30
2017,08,22,04,25,18.30
2017,08,22,04,26,18.30
2017,08,22,04,27,18.30
2017,08,22,04,28,18.30
2017,08,22,04,29,18.30
2017,08,22,04,30,18.30
2017,08,22,04,31,18.30
2017,08,22,04,32,18.30
2017,08,22,04,33,18.30
2017,08,22,04,34,18.30
2017,08,22,04,35,18.30
2017,08,22,04,36,18.30
2017,08,22,04,37,18.30
2017,08,22,04,38,18.30
2017,08,22,04,39,18.30
2017,08,22,04,40,18.20
2017,08,22,04,41,18.20
2017,08,22,04,42,18.30
2017,08,22,04,43,18.30
2017,08,22,04,44,18.20
2017,08,22,04,45,18.20
2017,08,22,04,46,18.20
2017,08,22,04,47,18.20
2017,08,22,04,48,18.20
2017,08,22,04,49,18.20
2017,08,22,04,50,18.30
2017,08,22,04,51,18.30
2017,08,22,04,52,18.40
2017,08,22,04,53,18.50
2017,08,22,04,54,18.60
2017,08,22,04,55,18.70
2017,08,22,04,56,18.80
2017,08,22,04,57,18.80
2017,08,22,04,58,18.90
2017,08,22,04,59,18.90
2017,08,22,05,00,18.90
2017,08,22,05,01,19.00
2017,08,22,05,02,19.00
2017,08,22,05,03,19.00
2017,08,22,05,04,19.00
2017,08,22,05,05,19.10
2017,08,22,05,06,19.10
2017,08,22,05,07,19.10
2017,08,22,05,08,19.10
2017,08,22,05,09,19.10
2017,08,22,05,10,19.10
2017,08,22,05,11,19.10
2017,08,22,05,12,19.00
2017,08,22,05,13,19.00
2017,08,22,05,14,18.90
2017,08,22,05,15,18.90
2017,08,22,05,16,18.80
2017,08,22,05,17,18.70
2017,08,22,05,18,18.70
2017,08,22,05,19,18.60
2017,08,22,05,20,18.50
2017,08,22,05,21,18.50
2017,08,22,05,22,18.40
2017,08,22,05,23,18.30
2017,08,22,05,24,18.30
2017,08,22,05,25,18.30
2017,08,22,05,26,18.30
2017,08,22,05,27,18.30
2017,08,22,05,28,18.30
2017,08,22,05,29,18.30
2017,08,22,05,30,18.30
2017,08,22,05,31,18.30
2017,08,22,05,32,18.30
2017,08,22,05,33,18.30
2017,08,22,05,34,18.30
2017,08,22,05,35,18.30
2017,08,22,05,36,18.30
2017,08,22,05,37,18.30
2017,08,22,05,38,18.30
2017,08,22,05,39,18.30
2017,08,22,05,40,18.30
2017,08,22,05,41,18.40
2017,08,22,05,42,18.30
2017,08,22,05,43,18.30
2017,08,22,05,44,18.30
2017,08,22,05,45,18.30
2017,08,22,05,46,18.20
2017,08,22,05,47,18.20
2017,08,22,05,48,18.20
2017,08,22,05,49,18.10
2017,08,22,05,50,18.10
2017,08,22,05,51,18.00
2017,08,22,05,52,18.00
2017,08,22,05,53,17.90
2017,08,22,05,54,17.90
2017,08,22,05,55,17.80
2017,08,22,05,56,17.80
2017,08,22,05,57,17.80
2017,08,22,05,58,17.70
2017,08,22,05,59,17.70
2017,08,22,06,00,17.70
2017,08,22,06,01,17.70
2017,08,22,06,02,17.60
2017,08,22,06,03,17.60
2017,08,22,06,04,17.60
2017,08,22,06,05,17.50
2017,08,22,06,06,17.50
2017,08,22,06,07,17.50
2017,08,22,06,08,17.40
2017,08,22,06,09,17.40
2017,08,22,06,10,17.40
2017,08,22,06,11,17.30
2017,08,22,06,12,17.30
2017,08,22,06,13,17.30
2017,08,22,06,14,17.30
2017,08,22,06,15,17.30
2017,08,22,06,16,17.30
2017,08,22,06,17,17.20
2017,08,22,06,18,17.20
2017,08,22,06,19,17.20
2017,08,22,06,20,17.20
2017,08,22,06,21,17.20
2017,08,22,06,22,17.10
2017,08,22,06,23,17.10
2017,08,22,06,24,17.10
2017,08,22,06,25,17.10
2017,08,22,06,26,17.10
2017,08,22,06,27,17.10
2017,08,22,06,28,17.00
2017,08,22,06,29,17.00
2017,08,22,06,30,17.00
2017,08,22,06,31,17.00
2017,08,22,06,32,16.90
2017,08,22,06,33,16.90
2017,08,22,06,34,16.90
2017,08,22,06,35,16.90
2017,08,22,06,36,16.90
2017,08,22,06,37,16.90
2017,08,22,06,38,16.90
2017,08,22,06,39,16.90
2017,08,22,06,40,16.80
2017,08,22,06,41,16.80
2017,08,22,06,42,16.80
2017,08,22,06,43,16.80
2017,08,22,06,44,16.80
2017,08,22,06,45,16.80
2017,08,22,06,46,16.80
2017,08,22,06,47,16.80
2017,08,22,06,48,16.80
2017,08,22,06,49,16.80
2017,08,22,06,50,16.80
2017,08,22,06,51,16.80
2017,08,22,06,52,16.80
2017,08,22,06,53,16.80
2017,08,22,06,54,16.80
2017,08,22,06,55,16.80
2017,08,22,06,56,16.80
2017,08,22,06,57,16.80
2017,08,22,06,58,16.80
2017,08,22,06,59,16.90
2017,08,22,07,00,16.90
2017,08,22,07,01,16.90
2017,08,22,07,02,16.90
2017,08,22,07,03,16.90
2017,08,22,07,04,17.00
2017,08,22,07,05,17.00
2017,08,22,07,06,17.10
2017,08,22,07,07,17.10
2017,08,22,07,08,17.20
2017,08,22,07,09,17.20
2017,08,22,07,10,17.30
2017,08,22,07,11,17.30
2017,08,22,07,12,17.40
2017,08,22,07,13,17.40
2017,08,22,07,14,17.50
2017,08,22,07,15,17.50
2017,08,22,07,16,17.60
2017,08,22,07,17,17.60
2017,08,22,07,18,17.70
2017,08,22,07,19,17.70
2017,08,22,07,20,17.80
2017,08,22,07,21,17.90
2017,08,22,07,22,17.90
2017,08,22,07,23,18.00
2017,08,22,07,24,18.10
2017,08,22,07,25,18.10
2017,08,22,07,26,18.20
2017,08,22,07,27,18.30
2017,08,22,07,28,18.30
2017,08,22,07,29,18.30
2017,08,22,07,30,18.40
2017,08,22,07,31,18.40
2017,08,22,07,32,18.50
2017,08,22,07,33,18.60
2017,08,22,07,34,18.70
2017,08,22,07,35,18.70
2017,08,22,07,36,18.90
2017,08,22,07,37,18.90
2017,08,22,07,38,19.10
2017,08,22,07,39,19.10
2017,08,22,07,40,19.30
2017,08,22,07,41,19.40
2017,08,22,07,42,19.50
2017,08,22,07,43,19.60
2017,08,22,07,44,19.60
2017,08,22,07,45,19.70
2017,08,22,07,46,19.80
2017,08,22,07,47,19.90
2017,08,22,07,48,20.00
2017,08,22,07,49,20.00
2017,08,22,07,50,20.10
2017,08,22,07,51,20.20
2017,08,22,07,52,20.30
2017,08,22,07,53,20.40
2017,08,22,07,54,20.40
2017,08,22,07,55,20.50
2017,08,22,07,56,20.60
2017,08,22,07,57,20.60
2017,08,22,07,58,20.70
2017,08,22,07,59,20.80
2017,08,22,08,00,20.80
2017,08,22,08,01,20.80
2017,08,22,08,02,20.90
2017,08,22,08,03,20.90
2017,08,22,08,04,21.00
2017,08,22,08,05,21.10
2017,08,22,08,06,21.10
2017,08,22,08,07,21.10
2017,08,22,08,08,21.20
2017,08,22,08,09,21.20
2017,08,22,08,10,21.30
2017,08,22,08,11,21.30
2017,08,22,08,12,21.40
2017,08,22,08,13,21.40
2017,08,22,08,14,21.40
2017,08,22,08,15,21.40
2017,08,22,08,16,21.40
2017,08,22,08,17,21.50
2017,08,22,08,18,21.50
2017,08,22,08,19,21.50
2017,08,22,08,20,21.60
2017,08,22,08,21,21.60
2017,08,22,08,22,21.60
2017,08,22,08,23,21.60
2017,08,22,08,24,21.70
2017,08,22,08,25,21.80
2017,08,22,08,26,21.80
2017,08,22,08,27,21.80
2017,08,22,08,28,21.80
2017,08,22,08,29,21.80
2017,08,22,08,30,21.80
2017,08,22,08,31,21.80
2017,08,22,08,32,21.80
2017,08,22,08,33,21.80
2017,08,22,08,34,21.80
2017,08,22,08,35,21.80
2017,08,22,08,36,21.80
2017,08,22,08,37,21.80
2017,08,22,08,38,21.80
2017,08,22,08,39,21.80
2017,08,22,08,40,21.80
2017,08,22,08,41,21.80
2017,08,22,08,42,21.80
2017,08,22,08,43,21.80
2017,08,22,08,44,21.80
2017,08,22,08,45,21.80
2017,08,22,08,46,21.80
2017,08,22,08,47,21.80
2017,08,22,08,48,21.70
2017,08,22,08,49,21.70
2017,08,22,08,50,21.70
2017,08,22,08,51,21.60
2017,08,22,08,52,21.60
2017,08,22,08,53,21.60
2017,08,22,08,54,21.50
2017,08,22,08,55,21.50
2017,08,22,08,56,21.50
2017,08,22,08,57,21.40
2017,08,22,08,58,21.40
2017,08,22,08,59,21.40
2017,08,22,09,00,21.30
2017,08,22,09,01,21.30
2017,08,22,09,02,21.30
2017,08,22,09,03,21.30
2017,08,22,09,04,21.30
2017,08,22,09,05,21.30
2017,08,22,09,06,21.20
2017,08,22,09,07,21.20
2017,08,22,09,08,21.20
2017,08,22,09,09,21.20
2017,08,22,09,10,21.10
2017,08,22,09,11,21.10
2017,08,22,09,12,21.10
2017,08,22,09,13,21.10
2017,08,22,09,14,21.10
2017,08,22,09,15,21.10
2017,08,22,09,16,21.10
2017,08,22,09,17,21.10
2017,08,22,09,18,21.10
2017,08,22,09,19,21.10
2017,08,22,09,20,21.10
2017,08,22,09,21,21.20
2017,08,22,09,22,21.20
2017,08,22,09,23,21.20
2017,08,22,09,24,21.30
2017,08,22,09,25,21.30
2017,08,22,09,26,21.30
2017,08,22,09,27,21.30
2017,08,22,09,28,21.30
2017,08,22,09,29,21.30
2017,08,22,09,30,21.30
2017,08,22,09,31,21.30
2017,08,22,09,32,21.30
2017,08,22,09,33,21.30
2017,08,22,09,34,21.30
2017,08,22,09,35,21.30
2017,08,22,09,36,21.30
2017,08,22,09,37,21.30
2017,08,22,09,38,21.40
2017,08,22,09,39,21.40
2017,08,22,09,40,21.40
2017,08,22,09,41,21.40
2017,08,22,09,42,21.40
2017,08,22,09,43,21.40
2017,08,22,09,44,21.50
2017,08,22,09,45,21.60
2017,08,22,09,46,21.60
2017,08,22,09,47,21.70
2017,08,22,09,48,21.70
2017,08,22,09,49,21.80
2017,08,22,09,50,21.80
2017,08,22,09,51,21.80
2017,08,22,09,52,21.80
2017,08,22,09,53,21.80
2017,08,22,09,54,21.80
2017,08,22,09,55,21.80
2017,08,22,09,56,21.90
2017,08,22,09,57,22.00
2017,08,22,09,58,22.00
2017,08,22,09,59,22.10
2017,08,22,10,00,22.10
2017,08,22,10,01,22.20
2017,08,22,10,02,22.10
2017,08,22,10,03,22.10
2017,08,22,10,04,22.10
2017,08,22,10,05,22.10
2017,08,22,10,06,22.20
2017,08,22,10,07,22.20
2017,08,22,10,08,22.20
2017,08,22,10,09,22.20
2017,08,22,10,10,22.20
2017,08,22,10,11,22.20
2017,08,22,10,12,22.20
2017,08,22,10,13,22.20
2017,08,22,10,14,22.30
2017,08,22,10,15,22.30
2017,08,22,10,16,22.30
2017,08,22,10,17,22.20
2017,08,22,10,18,22.20
2017,08,22,10,19,22.20
2017,08,22,10,20,22.30
2017,08,22,10,21,22.30
2017,08,22,10,22,22.30
2017,08,22,10,23,22.20
2017,08,22,10,24,22.20
2017,08,22,10,25,22.20
2017,08,22,10,26,22.20
2017,08,22,10,27,22.20
2017,08,22,10,28,22.20
2017,08,22,10,29,22.20
2017,08,22,10,30,22.20
2017,08,22,10,31,22.20
2017,08,22,10,32,22.20
2017,08,22,10,33,22.20
2017,08,22,10,34,22.20
2017,08,22,10,35,22.30
2017,08,22,10,36,22.30
2017,08,22,10,37,22.40
2017,08,22,10,38,22.50
2017,08,22,10,39,22.50
2017,08,22,10,40,22.50
2017,08,22,10,41,22.50
2017,08,22,10,42,22.60
2017,08,22,10,43,22.60
2017,08,22,10,44,22.60
2017,08,22,10,45,22.60
2017,08,22,10,46,22.60
2017,08,22,10,47,22.70
2017,08,22,10,48,22.80
2017,08,22,10,49,22.80
2017,08,22,10,50,22.80
2017,08,22,10,51,22.80
2017,08,22,10,52,22.80
2017,08,22,10,53,22.70
2017,08,22,10,54,22.70
2017,08,22,10,55,22.70
2017,08,22,10,56,22.70
2017,08,22,10,57,22.70
2017,08,22,10,58,22.70
2017,08,22,10,59,22.70
2017,08,22,11,00,22.80
2017,08,22,11,01,22.80
2017,08,22,11,02,22.80
2017,08,22,11,03,22.80
2017,08,22,11,04,22.80
2017,08,22,11,05,22.90
2017,08,22,11,06,22.90
2017,08,22,11,07,23.00
2017,08,22,11,08,23.10
2017,08,22,11,09,23.10
2017,08,22,11,10,23.20
2017,08,22,11,11,23.20
2017,08,22,11,12,23.30
2017,08,22,11,13,23.30
2017,08,22,11,14,23.30
2017,08,22,11,15,23.30
2017,08,22,11,16,23.30
2017,08,22,11,17,23.30
2017,08,22,11,18,23.30
2017,08,22,11,19,23.30
2017,08,22,11,20,23.30
2017,08,22,11,21,23.30
2017,08,22,11,22,23.40
2017,08,22,11,23,23.40
2017,08,22,11,24,23.50
2017,08,22,11,25,23.60
2017,08,22,11,26,23.70
2017,08,22,11,27,23.80
2017,08,22,11,28,23.90
2017,08,22,11,29,24.00
2017,08,22,11,30,24.00
2017,08,22,11,31,24.10
2017,08,22,11,32,24.10
2017,08,22,11,33,24.10
2017,08,22,11,34,24.10
2017,08,22,11,35,24.10
2017,08,22,11,36,24.10
2017,08,22,11,37,24.10
2017,08,22,11,38,24.20
2017,08,22,11,39,24.20
2017,08,22,11,40,24.20
2017,08,22,11,41,24.20
2017,08,22,11,42,24.20
2017,08,22,11,43,24.20
2017,08,22,11,44,24.20
2017,08,22,11,45,24.20
2017,08,22,11,46,24.20
2017,08,22,11,47,24.20
2017,08,22,11,48,24.20
2017,08,22,11,49,24.30
2017,08,22,11,50,24.30
2017,08,22,11,51,24.40
2017,08,22,11,52,24.40
2017,08,22,11,53,24.50
2017,08,22,11,54,24.50
2017,08,22,11,55,24.60
2017,08,22,11,56,24.60
2017,08,22,11,57,24.70
2017,08,22,11,58,24.70
2017,08,22,11,59,24.80
2017,08,22,12,00,24.80
2017,08,22,12,01,24.80
2017,08,22,12,02,24.80
2017,08,22,12,03,24.80
2017,08,22,12,04,24.80
2017,08,22,12,05,24.80
2017,08,22,12,06,24.70
2017,08,22,12,07,24.80
2017,08,22,12,08,24.80
2017,08,22,12,09,24.80
2017,08,22,12,10,24.90
2017,08,22,12,11,25.00
2017,08,22,12,12,25.00
2017,08,22,12,13,25.00
2017,08,22,12,14,25.10
2017,08,22,12,15,25.10
2017,08,22,12,16,25.10
2017,08,22,12,17,25.10
2017,08,22,12,18,25.10
2017,08,22,12,19,25.10
2017,08,22,12,20,25.10
2017,08,22,12,21,25.10
2017,08,22,12,22,25.10
2017,08,22,12,23,25.10
2017,08,22,12,24,25.20
2017,08,22,12,25,25.20
2017,08,22,12,26,25.20
2017,08,22,12,27,25.20
2017,08,22,12,28,25.30
2017,08,22,12,29,25.40
2017,08,22,12,30,25.50
2017,08,22,12,31,25.60
2017,08,22,12,32,25.70
2017,08,22,12,33,25.90
2017,08,22,12,34,25.90
2017,08,22,12,35,25.90
2017,08,22,12,36,25.90
2017,08,22,12,37,25.90
2017,08,22,12,38,25.90
2017,08,22,12,39,25.90
2017,08,22,12,40,25.90
2017,08,22,12,41,25.90
2017,08,22,12,42,25.90
2017,08,22,12,43,25.90
2017,08,22,12,44,25.90
2017,08,22,12,45,25.90
2017,08,22,12,46,25.90
2017,08,22,12,47,25.90
2017,08,22,12,48,25.90
2017,08,22,12,49,25.90
2017,08,22,12,50,25.90
2017,08,22,12,51,26.00
2017,08,22,12,52,26.10
2017,08,22,12,53,26.10
2017,08,22,12,54,26.00
2017,08,22,12,55,26.00
2017,08,22,12,56,26.00
2017,08,22,12,57,26.10
2017,08,22,12,58,26.10
2017,08,22,12,59,26.10
2017,08,22,13,00,26.10
2017,08,22,13,01,26.20
2017,08,22,13,02,26.20
2017,08,22,13,03,26.10
2017,08,22,13,04,26.10
2017,08,22,13,05,26.00
2017,08,22,13,06,25.90
2017,08,22,13,07,25.90
2017,08,22,13,08,26.00
2017,08,22,13,09,26.00
2017,08,22,13,10,26.00
2017,08,22,13,11,26.10
2017,08,22,13,12,26.10
2017,08,22,13,13,26.00
2017,08,22,13,14,26.00
2017,08,22,13,15,25.90
2017,08,22,13,16,25.90
2017,08,22,13,17,25.90
2017,08,22,13,18,26.00
2017,08,22,13,19,26.10
2017,08,22,13,20,26.20
2017,08,22,13,21,26.20
2017,08,22,13,22,26.30
2017,08,22,13,23,26.40
2017,08,22,13,24,26.40
2017,08,22,13,25,26.40
2017,08,22,13,26,26.40
2017,08,22,13,27,26.30
2017,08,22,13,28,26.20
2017,08,22,13,29,26.20
2017,08,22,13,30,26.20
2017,08,22,13,31,26.10
2017,08,22,13,32,26.10
2017,08,22,13,33,26.10
2017,08,22,13,34,26.10
2017,08,22,13,35,26.10
2017,08,22,13,36,26.10
2017,08,22,13,37,26.10
2017,08,22,13,38,26.00
2017,08,22,13,39,26.00
2017,08,22,13,40,26.10
2017,08,22,13,41,26.00
2017,08,22,13,42,26.10
2017,08,22,13,43,26.20
2017,08,22,13,44,26.20
2017,08,22,13,45,26.20
2017,08,22,13,46,26.20
2017,08,22,13,47,26.10
2017,08,22,13,48,26.10
2017,08,22,13,49,26.00
2017,08,22,13,50,25.90
2017,08,22,13,51,25.90
2017,08,22,13,52,25.80
2017,08,22,13,53,25.80
2017,08,22,13,54,25.80
2017,08,22,13,55,25.90
2017,08,22,13,56,25.90
2017,08,22,13,57,26.00
2017,08,22,13,58,26.10
2017,08,22,13,59,26.00
2017,08,22,14,00,25.90
2017,08,22,14,01,26.00
2017,08,22,14,02,26.00
2017,08,22,14,03,26.10
2017,08,22,14,04,26.00
2017,08,22,14,05,26.00
2017,08,22,14,06,26.00
2017,08,22,14,07,26.00
2017,08,22,14,08,26.20
2017,08,22,14,09,26.20
2017,08,22,14,10,26.20
2017,08,22,14,11,26.20
2017,08,22,14,12,26.20
2017,08,22,14,13,26.10
2017,08,22,14,14,26.00
2017,08,22,14,15,25.90
2017,08,22,14,16,26.00
2017,08,22,14,17,26.00
2017,08,22,14,18,26.10
2017,08,22,14,19,26.20
2017,08,22,14,20,26.20
2017,08,22,14,21,26.10
2017,08,22,14,22,26.00
2017,08,22,14,23,25.90
2017,08,22,14,24,25.90
2017,08,22,14,25,25.90
2017,08,22,14,26,25.90
2017,08,22,14,27,25.90
2017,08,22,14,28,25.80
2017,08,22,14,29,25.80
2017,08,22,14,30,25.80
2017,08,22,14,31,25.90
2017,08,22,14,32,25.90
2017,08,22,14,33,25.80
2017,08,22,14,34,25.90
2017,08,22,14,35,25.90
2017,08,22,14,36,25.90
2017,08,22,14,37,26.00
2017,08,22,14,38,26.00
2017,08,22,14,39,25.90
2017,08,22,14,40,25.90
2017,08,22,14,41,25.80
2017,08,22,14,42,25.70
2017,08,22,14,43,25.70
2017,08,22,14,44,25.60
2017,08,22,14,45,25.60
2017,08,22,14,46,25.60
2017,08,22,14,47,25.70
2017,08,22,14,48,25.60
2017,08,22,14,49,25.60
2017,08,22,14,50,25.60
2017,08,22,14,51,25.60
2017,08,22,14,52,25.60
2017,08,22,14,53,25.70
2017,08,22,14,54,25.70
2017,08,22,14,55,25.70
2017,08,22,14,56,25.80
2017,08,22,14,57,25.80
2017,08,22,14,58,25.90
2017,08,22,14,59,25.90
2017,08,22,15,00,25.90
2017,08,22,15,01,25.90
2017,08,22,15,02,25.90
2017,08,22,15,03,25.90
2017,08,22,15,04,25.90
2017,08,22,15,05,25.90
2017,08,22,15,06,25.90
2017,08,22,15,07,25.90
2017,08,22,15,08,26.10
2017,08,22,15,09,26.20
2017,08,22,15,10,26.40
2017,08,22,15,11,26.60
2017,08,22,15,12,26.70
2017,08,22,15,13,26.70
2017,08,22,15,14,26.80
2017,08,22,15,15,26.80
2017,08,22,15,16,26.80
2017,08,22,15,17,26.80
2017,08,22,15,18,26.90
2017,08,22,15,19,26.90
2017,08,22,15,20,26.90
2017,08,22,15,21,27.00
2017,08,22,15,22,27.10
2017,08,22,15,23,27.10
2017,08,22,15,24,27.20
2017,08,22,15,25,27.20
2017,08,22,15,26,27.30
2017,08,22,15,27,27.30
2017,08,22,15,28,27.20
2017,08,22,15,29,27.20
2017,08,22,15,30,27.20
2017,08,22,15,31,27.10
2017,08,22,15,32,27.00
2017,08,22,15,33,26.90
2017,08,22,15,34,26.90
2017,08,22,15,35,26.80
2017,08,22,15,36,26.70
2017,08,22,15,37,26.70
2017,08,22,15,38,26.70
2017,08,22,15,39,26.80
2017,08,22,15,40,26.80
2017,08,22,15,41,27.00
2017,08,22,15,42,27.10
2017,08,22,15,43,27.10
2017,08,22,15,44,27.20
2017,08,22,15,45,27.20
2017,08,22,15,46,27.20
2017,08,22,15,47,27.10
2017,08,22,15,48,27.10
2017,08,22,15,49,27.10
2017,08,22,15,50,27.00
2017,08,22,15,51,26.90
2017,08,22,15,52,26.90
2017,08,22,15,53,26.90
2017,08,22,15,54,26.90
2017,08,22,15,55,27.00
2017,08,22,15,56,27.00
2017,08,22,15,57,27.00
2017,08,22,15,58,27.00
2017,08,22,15,59,27.00
2017,08,22,16,00,27.00
2017,08,22,16,01,27.10
2017,08,22,16,02,27.10
2017,08,22,16,03,27.10
2017,08,22,16,04,27.10
2017,08,22,16,05,27.10
2017,08,22,16,06,27.10
2017,08,22,16,07,27.10
2017,08,22,16,08,27.10
2017,08,22,16,09,27.20
2017,08,22,16,10,27.20
2017,08,22,16,11,27.30
2017,08,22,16,12,27.40
2017,08,22,16,13,27.40
2017,08,22,16,14,27.40
2017,08,22,16,15,27.40
2017,08,22,16,16,27.30
2017,08,22,16,17,27.20
2017,08,22,16,18,27.10
2017,08,22,16,19,27.10
2017,08,22,16,20,27.10
2017,08,22,16,21,27.10
2017,08,22,16,22,27.10
2017,08,22,16,23,27.10
2017,08,22,16,24,27.10
2017,08,22,16,25,27.10
2017,08,22,16,26,27.10
2017,08,22,16,27,27.10
2017,08,22,16,28,27.10
2017,08,22,16,29,27.00
2017,08,22,16,30,26.90
2017,08,22,16,31,27.00
2017,08,22,16,32,27.00
2017,08,22,16,33,27.00
2017,08,22,16,34,27.00
2017,08,22,16,35,27.00
2017,08,22,16,36,27.00
2017,08,22,16,37,26.90
2017,08,22,16,38,26.90
2017,08,22,16,39,27.00
2017,08,22,16,40,27.00
2017,08,22,16,41,27.10
2017,08,22,16,42,27.20
2017,08,22,16,43,27.30
2017,08,22,16,44,27.40
2017,08,22,16,45,27.40
2017,08,22,16,46,27.50
2017,08,22,16,47,27.60
2017,08,22,16,48,27.60
2017,08,22,16,49,27.60
2017,08,22,16,50,27.60
2017,08,22,16,51,27.60
2017,08,22,16,52,27.70
2017,08,22,16,53,27.70
2017,08,22,16,54,27.70
2017,08,22,16,55,27.70
2017,08,22,16,56,27.70
2017,08,22,16,57,27.60
2017,08,22,16,58,27.50
2017,08,22,16,59,27.40
2017,08,22,17,00,27.40
2017,08,22,17,01,27.30
2017,08,22,17,02,27.30
2017,08,22,17,03,27.30
2017,08,22,17,04,27.30
2017,08,22,17,05,27.30
2017,08,22,17,06,27.30
2017,08,22,17,07,27.30
2017,08,22,17,08,27.30
2017,08,22,17,09,27.30
2017,08,22,17,10,27.40
2017,08,22,17,11,27.30
2017,08,22,17,12,27.30
2017,08,22,17,13,27.30
2017,08,22,17,14,27.30
2017,08,22,17,15,27.30
2017,08,22,17,16,27.30
2017,08,22,17,17,27.40
2017,08,22,17,18,27.40
2017,08,22,17,19,27.50